GW6872 Weather Reports


time (UTC)temp
C
wind
direction
speed
KPH
gust
KPH
rain 1hr
cm
rain 24hr
cm
rain mn
cm
humidity
%
barometer
mb
20260508004418 10 243 0.0 0.0 0.00 0.00 0.00 83 1010.2
20260508003919 10 242 0.0 0.0 0.00 0.00 0.00 83 1010.2
20260508003418 10 169 0.0 0.0 0.00 0.00 0.00 83 1010.2
20260508002919 10 245 0.0 0.0 0.00 0.00 0.00 83 1010.2
20260508002418 10 205 0.0 0.0 0.00 0.00 0.00 82 1010.5
20260508001919 10 238 0.0 0.0 0.00 0.00 0.00 82 1010.2
20260508001420 10 246 0.0 1.6 0.00 0.00 0.00 82 1010.2
20260508000920 10 249 0.0 0.0 0.00 0.00 0.00 81 1010.2
20260508000419 10 238 0.0 0.0 0.00 0.00 0.00 81 1010.2
20260507235918 10 236 0.0 0.0 0.00 0.00 0.00 81 1010.2
20260507235419 10 236 0.0 0.0 0.00 0.00 0.00 81 1010.2
20260507234920 10 253 0.0 0.0 0.00 0.00 0.00 81 1010.2
20260507234419 10 277 0.0 0.0 0.00 0.00 0.00 80 1010.5
20260507233919 10 292 0.0 0.0 0.00 0.00 0.00 81 1010.5
20260507233418 10 306 0.0 0.0 0.00 0.00 0.00 80 1010.2
20260507232919 10 280 0.0 1.6 0.00 0.00 0.00 80 1010.2
20260507232420 10 298 0.0 0.0 0.00 0.00 0.00 80 1010.2
20260507231918 11 278 0.0 1.6 0.00 0.00 0.00 79 1010.2
20260507231419 11 232 0.0 0.0 0.00 0.00 0.00 79 1010.2
20260507230919 11 4 1.6 1.6 0.00 0.00 0.00 78 1010.5
20260507230419 11 228 0.0 0.0 0.00 0.00 0.00 79 1010.5
20260507225918 11 260 0.0 0.0 0.00 0.00 0.00 78 1010.5
20260507225025 11 301 0.0 3.2 0.00 0.00 0.00 78 1010.5
20260507224418 11 301 0.0 1.6 0.00 0.00 0.00 77 1010.5
20260507223919 11 283 0.0 1.6 0.00 0.00 0.00 77 1010.5
20260507223419 11 320 0.0 1.6 0.00 0.00 0.00 77 1010.8
20260507222919 11 304 0.0 1.6 0.00 0.00 0.00 77 1010.8
20260507222419 11 330 0.0 1.6 0.00 0.00 0.00 77 1010.5
20260507221919 11 294 0.0 1.6 0.00 0.00 0.00 76 1010.5
20260507221419 11 273 0.0 1.6 0.00 0.00 0.00 76 1010.5
20260507220919 11 302 0.0 1.6 0.00 0.00 0.00 75 1010.5
20260507220419 11 293 0.0 1.6 0.00 0.00 0.00 75 1010.8
20260507215919 11 310 0.0 0.0 0.00 0.00 0.00 75 1010.8
20260507215418 11 323 0.0 0.0 0.00 0.00 0.00 75 1010.5
20260507214918 11 317 0.0 0.0 0.00 0.00 0.00 76 1010.5
20260507214418 11 329 0.0 0.0 0.00 0.00 0.00 76 1010.5
20260507213919 11 341 0.0 1.6 0.00 0.00 0.00 75 1010.8
20260507213419 11 344 0.0 0.0 0.00 0.00 0.00 75 1010.5
20260507212919 11 267 0.0 0.0 0.00 0.00 0.00 76 1010.8
20260507212421 11 344 1.6 1.6 0.00 0.00 0.00 75 1010.8
20260507211918 11 21 0.0 1.6 0.00 0.00 0.00 76 1010.8
20260507211419 11 5 1.6 3.2 0.00 0.00 0.00 75 1010.8
20260507210918 11 359 1.6 3.2 0.00 0.00 0.00 75 1010.5
20260507210418 11 314 0.0 4.8 0.00 0.00 0.00 74 1010.5
20260507205918 12 244 0.0 0.0 0.00 0.00 0.00 74 1010.5
20260507205418 11 315 0.0 1.6 0.00 0.00 0.00 74 1010.5
20260507204920 12 302 0.0 1.6 0.00 0.00 0.00 74 1010.5
20260507204419 11 313 0.0 1.6 0.00 0.00 0.00 74 1010.2
20260507203920 12 262 1.6 3.2 0.00 0.00 0.00 73 1010.2
20260507203418 11 266 1.6 1.6 0.00 0.00 0.00 73 1010.2
20260507202922 11 28 1.6 3.2 0.00 0.00 0.00 73 1010.2
20260507202419 11 298 1.6 4.8 0.00 0.00 0.00 73 1010.2
20260507201923 12 322 1.6 3.2 0.00 0.00 0.00 72 1010.2
20260507201420 12 17 0.0 3.2 0.00 0.00 0.00 72 1009.8
20260507200920 12 314 3.2 4.8 0.00 0.00 0.00 72 1009.8
20260507195931 12 349 1.6 3.2 0.00 0.00 0.00 71 1009.8
20260507195421 12 316 1.6 3.2 0.00 0.00 0.00 71 1009.8
20260507194918 12 158 0.0 3.2 0.00 0.00 0.00 70 1009.8
20260507194418 12 347 1.6 1.6 0.00 0.00 0.00 70 1009.8
20260507193919 12 303 3.2 4.8 0.00 0.00 0.00 70 1009.8
20260507193421 12 60 0.0 3.2 0.00 0.00 0.00 70 1009.5
20260507192920 12 312 3.2 4.8 0.00 0.00 0.00 70 1009.5
20260507192419 12 228 0.0 8.0 0.00 0.00 0.00 70 1009.8
20260507191923 12 335 3.2 3.2 0.00 0.00 0.00 70 1009.8
20260507191419 12 43 1.6 3.2 0.00 0.00 0.00 70 1009.5
20260507190918 12 305 0.0 1.6 0.00 0.00 0.00 70 1009.8
20260507190419 12 134 4.8 4.8 0.00 0.00 0.00 70 1009.5
20260507185919 12 336 3.2 9.7 0.00 0.00 0.00 70 1009.5
20260507184950 13 330 4.8 4.8 0.00 0.00 0.00 69 1009.5
20260507184423 13 319 1.6 9.7 0.00 0.00 0.00 68 1009.8
20260507183923 13 357 1.6 3.2 0.00 0.00 0.00 67 1009.5
20260507183423 13 298 0.0 3.2 0.00 0.00 0.00 68 1009.5
20260507182922 13 98 0.0 9.7 0.00 0.00 0.00 68 1009.8
20260507182418 13 344 1.6 3.2 0.00 0.00 0.00 68 1009.5
20260507181918 13 313 4.8 4.8 0.00 0.00 0.00 67 1009.5
20260507181419 13 272 4.8 9.7 0.00 0.00 0.00 67 1009.5
20260507180925 13 95 0.0 3.2 0.00 0.00 0.00 67 1009.5
20260507180418 13 4 1.6 9.7 0.00 0.00 0.00 67 1009.5
20260507175922 13 296 3.2 4.8 0.00 0.00 0.00 67 1009.5
20260507175422 13 85 1.6 4.8 0.00 0.00 0.00 67 1009.5
20260507174921 13 7 1.6 1.6 0.00 0.00 0.00 66 1009.5
20260507174419 13 318 4.8 8.0 0.00 0.00 0.00 65 1009.1
20260507173921 13 209 1.6 4.8 0.00 0.00 0.00 65 1009.1
20260507173418 13 206 1.6 3.2 0.00 0.00 0.00 65 1009.5
20260507172920 13 87 4.8 4.8 0.00 0.00 0.00 64 1009.1
20260507172418 14 318 3.2 4.8 0.00 0.00 0.00 63 1009.1
20260507171919 14 224 0.0 1.6 0.00 0.00 0.00 63 1009.5
20260507171421 13 71 0.0 4.8 0.00 0.00 0.00 64 1009.1
20260507170919 14 16 1.6 9.7 0.00 0.00 0.00 63 1009.1
20260507170420 14 219 3.2 9.7 0.00 0.00 0.00 62 1009.5
20260507165923 14 342 3.2 8.0 0.00 0.00 0.00 62 1009.1
20260507165424 14 89 1.6 8.0 0.00 0.00 0.00 62 1009.1
20260507164921 14 18 1.6 4.8 0.00 0.00 0.00 62 1009.1
20260507164420 15 14 4.8 8.0 0.00 0.00 0.00 61 1009.1
20260507163922 15 205 1.6 1.6 0.00 0.00 0.00 60 1009.1
20260507163422 14 294 0.0 8.0 0.00 0.00 0.00 60 1009.1
20260507162921 15 283 1.6 4.8 0.00 0.00 0.00 57 1009.1
20260507162422 15 281 3.2 9.7 0.00 0.00 0.00 56 1009.1
20260507161919 16 333 3.2 8.0 0.00 0.00 0.00 53 1009.1
20260507161418 15 286 0.0 1.6 0.00 0.00 0.00 55 1009.5
20260507160921 15 326 0.0 4.8 0.00 0.00 0.00 57 1009.1
20260507160422 15 335 1.6 9.7 0.00 0.00 0.00 56 1009.1
20260507155920 15 193 3.2 3.2 0.00 0.00 0.00 53 1009.5
20260507155421 14 220 1.6 4.8 0.00 0.00 0.00 55 1009.5
20260507154922 14 223 1.6 4.8 0.00 0.00 0.00 56 1009.5
20260507154418 15 50 1.6 9.7 0.00 0.00 0.00 56 1009.1
20260507153918 15 283 3.2 4.8 0.00 0.00 0.00 55 1009.5
20260507153420 15 76 1.6 3.2 0.00 0.00 0.00 56 1009.5
20260507152920 15 227 0.0 3.2 0.00 0.00 0.00 55 1009.1
20260507152423 15 219 0.0 3.2 0.00 0.00 0.00 55 1009.5
20260507151919 15 284 0.0 1.6 0.00 0.00 0.00 54 1009.5
20260507151423 16 75 1.6 3.2 0.00 0.00 0.00 52 1009.5
20260507150918 16 321 1.6 3.2 0.00 0.00 0.00 52 1009.5
20260507150421 17 318 0.0 8.0 0.00 0.00 0.00 50 1009.1
20260507145923 17 299 0.0 1.6 0.00 0.00 0.00 51 1009.1
20260507145422 16 82 0.0 3.2 0.00 0.00 0.00 54 1009.5
20260507144922 16 254 0.0 4.8 0.00 0.00 0.00 55 1009.5
20260507144418 16 248 4.8 8.0 0.00 0.00 0.00 54 1009.5
20260507143442 16 130 0.0 1.6 0.00 0.00 0.00 53 1009.1
20260507142918 17 33 0.0 3.2 0.00 0.00 0.00 53 1009.5
20260507142418 15 326 0.0 1.6 0.00 0.00 0.00 56 1009.5
20260507141927 14 350 1.6 3.2 0.00 0.00 0.00 59 1009.5
20260507141421 14 60 0.0 4.8 0.00 0.00 0.00 60 1009.5
20260507140923 14 359 3.2 4.8 0.00 0.00 0.00 61 1009.5
20260507140422 13 190 3.2 4.8 0.00 0.00 0.00 61 1009.8
20260507135919 13 308 3.2 8.0 0.00 0.00 0.00 62 1009.8
20260507135422 13 238 1.6 3.2 0.00 0.00 0.00 62 1009.8
20260507134433 14 325 1.6 3.2 0.00 0.00 0.00 60 1009.8
20260507133922 14 250 0.0 3.2 0.00 0.00 0.00 61 1009.8
20260507133421 15 307 0.0 3.2 0.00 0.00 0.00 60 1009.8
20260507132923 15 327 1.6 4.8 0.00 0.00 0.00 60 1009.8
20260507132421 15 88 0.0 0.0 0.00 0.00 0.00 59 1009.8
20260507131924 15 233 0.0 0.0 0.00 0.00 0.00 59 1009.8
20260507131420 15 224 0.0 1.6 0.00 0.00 0.00 59 1009.8
20260507130924 15 228 0.0 1.6 0.00 0.00 0.00 58 1009.8
20260507130420 15 78 0.0 1.6 0.00 0.00 0.00 58 1009.8
20260507125922 15 240 0.0 0.0 0.00 0.00 0.00 58 1009.8
20260507125423 15 17 0.0 1.6 0.00 0.00 0.00 58 1009.8
20260507124921 15 205 0.0 1.6 0.00 0.00 0.00 58 1009.8
20260507124421 15 280 0.0 0.0 0.00 0.00 0.00 59 1009.8
20260507123918 14 246 0.0 0.0 0.00 0.00 0.00 61 1010.2
20260507123421 13 264 0.0 1.6 0.00 0.00 0.00 61 1010.2
20260507122919 13 271 0.0 0.0 0.00 0.00 0.00 62 1009.8
20260507122418 13 319 1.6 1.6 0.00 0.00 0.00 63 1010.2
20260507121923 13 214 0.0 0.0 0.00 0.00 0.00 64 1009.8
20260507121419 13 225 3.2 3.2 0.00 0.00 0.00 64 1009.8
20260507120920 13 235 0.0 3.2 0.00 0.00 0.00 64 1009.8
20260507120423 13 304 0.0 3.2 0.00 0.00 0.00 62 1010.2
20260507115922 13 183 0.0 0.0 0.00 0.00 0.00 63 1009.8
20260507115422 13 249 0.0 0.0 0.00 0.00 0.00 64 1010.2
20260507114923 13 283 0.0 0.0 0.00 0.00 0.00 63 1010.2
20260507114418 13 333 0.0 0.0 0.00 0.00 0.00 64 1010.2
20260507113920 13 239 0.0 0.0 0.00 0.00 0.00 64 1010.2
20260507113422 13 311 0.0 0.0 0.00 0.00 0.00 64 1010.2
20260507112918 13 279 0.0 0.0 0.00 0.00 0.00 64 1010.2
20260507112418 13 296 0.0 1.6 0.00 0.00 0.00 63 1010.2
20260507111920 13 292 0.0 3.2 0.00 0.00 0.00 63 1010.2
20260507111419 13 319 0.0 1.6 0.00 0.00 0.00 62 1010.2
20260507110922 13 283 1.6 3.2 0.00 0.00 0.00 61 1010.2
20260507110421 13 146 0.0 1.6 0.00 0.00 0.00 60 1010.2
20260507105919 13 45 0.0 0.0 0.00 0.00 0.00 60 1009.8
20260507105419 14 198 0.0 1.6 0.00 0.00 0.00 60 1010.2
20260507104921 13 227 0.0 1.6 0.00 0.00 0.00 60 1010.2
20260507104420 13 60 0.0 0.0 0.00 0.00 0.00 61 1010.2
20260507103919 13 337 1.6 4.8 0.00 0.00 0.00 61 1010.2
20260507103419 13 256 0.0 4.8 0.00 0.00 0.00 61 1010.2
20260507102918 13 141 1.6 3.2 0.00 0.00 0.00 61 1010.2
20260507102422 13 205 0.0 0.0 0.00 0.00 0.00 62 1010.2
20260507101919 13 88 1.6 3.2 0.00 0.00 0.00 61 1010.2
20260507101419 13 310 0.0 1.6 0.00 0.00 0.00 61 1010.5
20260507100919 14 331 1.6 4.8 0.00 0.00 0.00 60 1010.5
20260507100419 14 35 1.6 3.2 0.00 0.00 0.00 62 1010.2
20260507095921 13 246 0.0 1.6 0.00 0.00 0.00 64 1010.5
20260507095419 13 315 3.2 3.2 0.00 0.00 0.00 65 1010.2
20260507094920 12 248 0.0 0.0 0.00 0.00 0.00 66 1010.2
20260507094419 12 216 0.0 0.0 0.00 0.00 0.00 67 1010.2
20260507093920 12 308 0.0 0.0 0.00 0.00 0.00 68 1010.2
20260507093422 12 217 0.0 3.2 0.00 0.00 0.00 68 1010.5
20260507092922 11 314 1.6 1.6 0.00 0.00 0.00 68 1010.2
20260507092420 11 310 1.6 3.2 0.00 0.00 0.00 69 1010.5
20260507091922 11 222 1.6 3.2 0.00 0.00 0.00 70 1010.2
20260507091418 11 304 3.2 4.8 0.00 0.00 0.00 71 1010.5
20260507090922 11 315 0.0 4.8 0.00 0.00 0.00 71 1010.2
20260507090422 11 322 0.0 1.6 0.00 0.00 0.00 70 1010.5
20260507085918 11 241 0.0 0.0 0.00 0.00 0.00 71 1010.5
20260507085422 11 257 0.0 0.0 0.00 0.00 0.00 71 1010.5
20260507084919 11 126 1.6 1.6 0.00 0.00 0.00 70 1010.2
20260507084419 11 67 0.0 3.2 0.00 0.00 0.00 71 1010.2
20260507083918 12 54 0.0 0.0 0.00 0.00 0.00 72 1010.2
20260507083419 11 58 0.0 0.0 0.00 0.00 0.00 73 1010.2
20260507082920 11 82 0.0 0.0 0.00 0.00 0.00 73 1010.2
20260507082421 11 336 0.0 0.0 0.00 0.00 0.00 73 1010.2
20260507081918 11 294 0.0 1.6 0.00 0.00 0.00 72 1010.2
20260507081418 11 225 0.0 4.8 0.00 0.00 0.00 73 1010.2
20260507080923 11 191 0.0 1.6 0.00 0.00 0.00 74 1010.2
20260507080420 11 324 0.0 1.6 0.00 0.00 0.00 75 1010.2
20260507075923 11 347 1.6 4.8 0.00 0.00 0.00 75 1010.2
20260507075419 11 307 1.6 3.2 0.00 0.00 0.00 76 1010.2
20260507074920 11 185 0.0 4.8 0.00 0.00 0.00 78 1009.8
20260507074421 10 12 1.6 3.2 0.00 0.00 0.00 79 1009.8
20260507073918 10 307 1.6 4.8 0.00 0.00 0.00 80 1010.2
20260507073418 10 313 1.6 3.2 0.00 0.00 0.00 80 1010.2
20260507072921 10 1 0.0 3.2 0.00 0.00 0.00 81 1010.2
20260507072418 10 323 0.0 1.6 0.00 0.00 0.00 82 1010.2
20260507071921 10 337 0.0 3.2 0.00 0.00 0.00 82 1009.8
20260507071419 10 265 0.0 1.6 0.00 0.00 0.00 83 1010.2
20260507070919 10 314 1.6 3.2 0.00 0.00 0.00 83 1009.8
20260507070419 10 293 0.0 0.0 0.00 0.00 0.00 84 1009.8
20260507065921 10 337 1.6 1.6 0.00 0.00 0.00 84 1009.8
20260507065420 9 46 1.6 3.2 0.00 0.00 0.00 85 1010.2
20260507064918 9 133 0.0 1.6 0.00 0.00 0.00 85 1009.8
20260507064421 9 160 0.0 0.0 0.00 0.00 0.00 86 1009.8
20260507063918 9 354 1.6 1.6 0.00 0.00 0.00 86 1009.8
20260507063421 9 332 0.0 0.0 0.00 0.00 0.00 86 1009.8
20260507062918 9 305 0.0 0.0 0.00 0.00 0.00 86 1009.8
20260507062419 9 259 0.0 1.6 0.00 0.00 0.00 86 1009.8
20260507061921 9 208 0.0 1.6 0.00 0.00 0.00 86 1009.8
20260507061419 9 356 0.0 3.2 0.00 0.00 0.00 86 1009.8
20260507060919 9 142 1.6 1.6 0.00 0.00 0.00 86 1009.8
20260507060421 9 322 0.0 1.6 0.00 0.00 0.00 86 1009.8
20260507055919 9 308 0.0 0.0 0.00 0.00 0.00 86 1009.8
20260507055418 9 244 0.0 0.0 0.00 0.00 0.00 86 1009.8
20260507054920 9 242 0.0 0.0 0.00 0.00 0.00 86 1009.8
20260507054419 9 238 0.0 0.0 0.00 0.00 0.00 86 1009.5
20260507053919 9 224 0.0 0.0 0.00 0.00 0.00 85 1009.5
20260507053418 9 217 0.0 0.0 0.00 0.00 0.00 85 1009.5
20260507052919 9 294 1.6 3.2 0.00 0.00 0.00 85 1009.5
20260507052421 9 295 0.0 0.0 0.00 0.00 0.00 85 1009.5
20260507051919 9 330 0.0 1.6 0.00 0.00 0.00 85 1009.5
20260507051418 9 334 1.6 1.6 0.00 0.00 0.00 84 1009.1
20260507050920 9 79 0.0 0.0 0.00 0.00 0.00 84 1009.1
20260507050421 9 331 0.0 1.6 0.00 0.00 0.00 84 1009.5
20260507045919 9 274 0.0 1.6 0.00 0.00 0.00 83 1009.5
20260507045420 9 306 0.0 0.0 0.00 0.00 0.00 84 1009.5
20260507044923 9 317 0.0 1.6 0.00 0.00 0.00 84 1009.5
20260507044418 9 303 1.6 1.6 0.00 0.00 0.00 84 1009.1
20260507043918 9 339 0.0 3.2 0.00 0.00 0.00 84 1009.1
20260507043418 9 312 0.0 3.2 0.00 0.00 0.00 83 1009.1
20260507042918 9 333 1.6 1.6 0.00 0.00 0.00 83 1009.5
20260507042420 9 335 0.0 0.0 0.00 0.00 0.00 84 1009.1
20260507041921 9 333 0.0 1.6 0.00 0.00 0.00 83 1009.1
20260507041419 10 11 0.0 1.6 0.00 0.00 0.00 83 1009.5
20260507040918 10 331 0.0 1.6 0.00 0.00 0.00 83 1009.1
20260507040418 10 285 0.0 0.0 0.00 0.00 0.00 83 1009.5
20260507035920 10 284 0.0 0.0 0.00 0.00 0.00 83 1009.1
20260507035420 10 246 0.0 0.0 0.00 0.00 0.00 82 1009.1
20260507034920 10 320 0.0 0.0 0.00 0.00 0.00 82 1009.1
20260507034419 10 317 0.0 1.6 0.00 0.00 0.00 81 1009.1
20260507033919 10 263 0.0 0.0 0.00 0.00 0.00 81 1009.1
20260507033419 10 291 0.0 0.0 0.00 0.00 0.00 81 1009.1
20260507032919 10 0 0.0 1.6 0.00 0.00 0.00 81 1009.1
20260507032419 10 331 1.6 3.2 0.00 0.00 0.00 81 1008.8
20260507031918 10 265 0.0 0.0 0.00 0.00 0.00 81 1009.1
20260507031422 10 259 0.0 1.6 0.00 0.00 0.00 81 1009.1
20260507030922 10 296 0.0 0.0 0.00 0.00 0.00 81 1009.1
20260507030420 10 227 0.0 0.0 0.00 0.00 0.00 81 1009.1
20260507025919 10 232 0.0 0.0 0.00 0.00 0.00 81 1009.1
20260507025420 10 243 0.0 0.0 0.00 0.00 0.00 81 1009.1
20260507024919 10 260 0.0 0.0 0.00 0.00 0.00 81 1009.1
20260507024418 10 269 0.0 0.0 0.00 0.00 0.00 81 1009.1
20260507023920 10 223 0.0 0.0 0.00 0.00 0.00 81 1009.1
20260507023418 10 221 0.0 0.0 0.00 0.00 0.00 81 1009.1
20260507022923 10 214 0.0 0.0 0.00 0.00 0.00 81 1009.1
20260507022422 10 223 0.0 0.0 0.00 0.00 0.00 81 1009.1
20260507021918 10 237 0.0 0.0 0.00 0.00 0.00 81 1009.1
20260507021422 10 205 0.0 0.0 0.00 0.00 0.00 81 1008.8
20260507020921 10 208 0.0 0.0 0.00 0.00 0.00 81 1008.8
20260507020422 10 186 0.0 0.0 0.00 0.00 0.00 81 1009.1
20260507015921 10 227 0.0 0.0 0.00 0.00 0.00 81 1008.8
20260507015420 10 218 0.0 0.0 0.00 0.00 0.00 81 1008.8
20260507014921 10 210 0.0 0.0 0.00 0.00 0.00 81 1009.1
20260507014421 10 209 0.0 0.0 0.00 0.00 0.00 81 1009.1
20260507013920 10 254 0.0 0.0 0.00 0.00 0.00 81 1008.8
20260507013419 10 270 0.0 0.0 0.00 0.00 0.00 81 1009.1
20260507012920 10 210 0.0 0.0 0.00 0.00 0.00 81 1008.8
20260507012418 10 214 0.0 0.0 0.00 0.00 0.00 81 1009.1
20260507011919 10 233 0.0 0.0 0.00 0.00 0.00 81 1008.8
20260507011421 10 201 0.0 0.0 0.00 0.00 0.00 81 1009.1
20260507010918 10 197 0.0 0.0 0.00 0.00 0.00 81 1008.8
20260507010420 10 208 0.0 0.0 0.00 0.00 0.00 80 1008.8
20260507005921 10 233 0.0 0.0 0.00 0.00 0.00 80 1008.8
20260507005419 10 242 0.0 0.0 0.00 0.00 0.00 80 1008.8
20260507004920 10 223 0.0 0.0 0.00 0.00 0.00 80 1008.8